Hollywood, FL

2:44 PM EDT on October 14, 2019 (GMT -0400)
North Perry

Weather History for KHWO - August, 2019

Change the Weather History Date:

Thursday, August 22, 2019

  Actual Average (WUND) Record (WUND)
Temperature  
Mean Temperature 85 °F -  
Max Temperature 91 °F - - (-1)
Min Temperature 80 °F - - (-1)
Cooling Degree Days 20    
Growing Degree Days 35 (Base 50)    
Moisture  
Dew Point 74 °F    
Average Humidity 77    
Maximum Humidity 85    
Minimum Humidity 57    
Precipitation  
Precipitation 0.46 in - - ()
Sea Level Pressure  
Sea Level Pressure 30.02 in    
Wind  
Wind Speed 6 mph (ENE)    
Max Wind Speed 13 mph    
Max Gust Speed 30 mph    
Visibility 8 miles    
Events Rain    
Averages and records for this station are not official NWS values.
T = Trace of Precipitation, MM = Missing Value Source: NWS Daily Summary

Daily Weather History Graph

Daily Weather History Graph

Search for Another Location

Airport or City:

Astronomy

Aug. 22, 2019 Rise Set
Actual Time 6:56 AM EDT 7:50 PM EDT
Civil Twilight 6:32 AM EDT 8:14 PM EDT
Nautical Twilight 6:04 AM EDT 8:42 PM EDT
Astronomical Twilight 5:36 AM EDT 9:11 PM EDT
Moon No Moon Rise 12:53 PM EDT (8/22)
Length of Visible Light 13h 41m
Length of Day
12h 53m
Waning Gibbous, 60% of the Moon is Illuminated
Aug 22
Waning Gibbous
Aug 23
Last Quarter
Aug 30
New
Sep 5
First Quarter
Sep 14
Full

Hourly Weather History & Observations

Time (EDT) Temp. Heat Index Dew Point Humidity Pressure Visibility Wind Dir Wind Speed Gust Speed Precip Events Conditions
12:53 AM 82.9 °F 88.8 °F 73.0 °F 72% 30.06 in 10.0 mi ENE 6.9 mph - N/A   Clear
1:53 AM 82.0 °F 87.4 °F 73.0 °F 74% 30.05 in 10.0 mi East 5.8 mph - N/A   Clear
2:53 AM 82.0 °F 87.4 °F 73.0 °F 74% 30.03 in 10.0 mi ENE 4.6 mph - N/A   Clear
3:53 AM 81.0 °F 85.8 °F 73.0 °F 77% 30.02 in 10.0 mi ENE 4.6 mph - N/A   Partly Cloudy
4:53 AM 81.0 °F 85.2 °F 72.0 °F 74% 30.02 in 10.0 mi Calm Calm - N/A   Partly Cloudy
5:53 AM 80.1 °F 83.8 °F 72.0 °F 76% 30.02 in 10.0 mi NNE 3.5 mph - N/A   Clear
6:53 AM 81.0 °F 85.8 °F 73.0 °F 77% 30.03 in 10.0 mi ENE 4.6 mph - N/A   Scattered Clouds
7:36 AM 81.0 °F 86.2 °F 73.9 °F 79% 30.03 in 10.0 mi SSW 5.8 mph - N/A   Mostly Cloudy
7:47 AM 80.6 °F 86.2 °F 75.2 °F 84% 30.04 in 1.8 mi East 5.8 mph - 0.13 in Rain Heavy Rain
7:53 AM 80.1 °F 84.5 °F 73.9 °F 81% 30.04 in 3.0 mi ENE 4.6 mph - 0.15 in Rain Rain
8:21 AM 80.1 °F 84.5 °F 73.9 °F 81% 30.03 in 4.0 mi NE 5.8 mph - 0.00 in Rain Light Rain
8:53 AM 80.1 °F 85.1 °F 75.0 °F 85% 30.05 in 10.0 mi NE 8.1 mph - 0.00 in   Overcast
9:53 AM 81.0 °F 87.3 °F 75.9 °F 85% 30.05 in 10.0 mi SE 3.5 mph - 0.00 in Rain Light Rain
10:05 AM 82.0 °F 89.4 °F 75.9 °F 82% 30.06 in 10.0 mi South 5.8 mph - 0.00 in   Mostly Cloudy
10:25 AM 82.9 °F 91.8 °F 77.0 °F 82% 30.05 in 10.0 mi Variable 4.6 mph - 0.00 in   Partly Cloudy
10:53 AM 84.9 °F 93.3 °F 75.0 °F 72% 30.05 in 10.0 mi SE 9.2 mph - 0.00 in   Scattered Clouds
12:53 PM 88.0 °F 94.7 °F 72.0 °F 59% 30.04 in 10.0 mi NE 12.7 mph - 0.02 in   Scattered Clouds
1:53 PM 90.0 °F 97.9 °F 73.0 °F 57% 30.02 in 10.0 mi East 9.2 mph - N/A   Partly Cloudy
2:50 PM 80.6 °F 85.4 °F 73.4 °F 79% 30.02 in 1.5 mi NE 6.9 mph 29.9 mph 0.15 in Rain Heavy Rain
2:53 PM 80.1 °F 84.2 °F 73.0 °F 79% 30.02 in 0.8 mi ENE 8.1 mph - 0.23 in Rain Heavy Rain
2:59 PM 81.0 °F 86.7 °F 75.0 °F 82% 30.01 in 1.0 mi East 12.7 mph - 0.03 in Rain Rain
3:06 PM 81.0 °F 86.7 °F 75.0 °F 82% 30.01 in 4.0 mi East 12.7 mph - 0.03 in Rain Light Rain
3:53 PM 82.9 °F 90.2 °F 75.0 °F 77% 30.00 in 4.0 mi East 10.4 mph - 0.03 in   Haze
4:53 PM 82.0 °F 89.4 °F 75.9 °F 82% 30.00 in 10.0 mi NE 9.2 mph - 0.00 in   Mostly Cloudy
5:53 PM 84.0 °F 92.6 °F 75.9 °F 76% 29.99 in 10.0 mi NE 8.1 mph - N/A   Partly Cloudy
6:53 PM 84.9 °F 92.1 °F 73.9 °F 69% 29.98 in 10.0 mi ENE 12.7 mph - N/A   Clear
7:53 PM 82.9 °F 88.8 °F 73.0 °F 72% 29.99 in 10.0 mi NE 6.9 mph - N/A   Clear
8:53 PM 82.0 °F 88.6 °F 75.0 °F 79% 29.99 in 10.0 mi NNE 6.9 mph - 0.02 in Rain Light Rain
9:53 PM 81.0 °F 86.7 °F 75.0 °F 82% 30.01 in 10.0 mi NE 4.6 mph - 0.00 in   Clear
10:53 PM 81.0 °F 87.3 °F 75.9 °F 85% 30.01 in 10.0 mi NNE 3.5 mph - N/A   Clear
11:53 PM 81.0 °F 87.3 °F 75.9 °F 85% 29.99 in 10.0 mi NE 4.6 mph - 0.01 in   Partly Cloudy